| time (UTC) | temp F | wind direction | speed MPH | gust MPH | rain 1hr in | rain 24hr in | rain mn in | humidity % | barometer mb |
| 20260506105903 | 57 | 291 | 5.0 | 8.0 | 0.00 | 0.11 | 0.02 | 75 | 1014.5 |
| 20260506105403 | 57 | 279 | 5.0 | 9.0 | 0.00 | 0.11 | 0.02 | 77 | 1014.5 |
| 20260506104903 | 57 | 294 | 1.0 | 8.0 | 0.00 | 0.11 | 0.02 | 77 | 1014.5 |
| 20260506104403 | 57 | 311 | 2.0 | 8.0 | 0.00 | 0.11 | 0.02 | 78 | 1014.5 |
| 20260506103903 | 56 | 318 | 3.0 | 8.0 | 0.00 | 0.11 | 0.02 | 79 | 1014.6 |
| 20260506103403 | 56 | 331 | 5.0 | 10.0 | 0.00 | 0.11 | 0.02 | 79 | 1014.6 |
| 20260506102904 | 56 | 299 | 2.0 | 7.0 | 0.00 | 0.12 | 0.02 | 81 | 1014.5 |
| 20260506102403 | 56 | 318 | 1.0 | 8.0 | 0.00 | 0.12 | 0.02 | 82 | 1014.5 |
| 20260506101903 | 56 | 281 | 2.0 | 6.0 | 0.00 | 0.12 | 0.02 | 81 | 1014.6 |
| 20260506101403 | 56 | 292 | 4.0 | 8.0 | 0.00 | 0.12 | 0.02 | 81 | 1014.6 |
| 20260506100903 | 56 | 264 | 4.0 | 9.0 | 0.00 | 0.12 | 0.02 | 82 | 1014.6 |
| 20260506100403 | 55 | 260 | 1.0 | 5.0 | 0.00 | 0.13 | 0.02 | 83 | 1014.6 |
| 20260506095903 | 55 | 307 | 2.0 | 7.0 | 0.00 | 0.13 | 0.02 | 84 | 1014.6 |
| 20260506095403 | 55 | 235 | 4.0 | 7.0 | 0.00 | 0.13 | 0.02 | 84 | 1014.6 |
| 20260506094903 | 55 | 267 | 3.0 | 8.0 | 0.00 | 0.13 | 0.02 | 84 | 1014.6 |
| 20260506094403 | 54 | 301 | 0.0 | 3.0 | 0.00 | 0.13 | 0.02 | 85 | 1014.6 |
| 20260506093903 | 54 | 299 | 1.0 | 5.0 | 0.00 | 0.13 | 0.02 | 85 | 1014.6 |
| 20260506092906 | 54 | 285 | 0.0 | 3.0 | 0.00 | 0.13 | 0.02 | 87 | 1014.6 |
| 20260506091903 | 54 | 284 | 1.0 | 3.0 | 0.00 | 0.13 | 0.02 | 88 | 1014.6 |
| 20260506091403 | 54 | 265 | 0.0 | 2.0 | 0.00 | 0.13 | 0.02 | 89 | 1014.6 |
| 20260506090903 | 53 | 264 | 1.0 | 3.0 | 0.00 | 0.13 | 0.02 | 89 | 1014.6 |
| 20260506090403 | 53 | 273 | 2.0 | 3.0 | 0.00 | 0.13 | 0.02 | 90 | 1014.6 |
| 20260506085904 | 53 | 252 | 1.0 | 3.0 | 0.00 | 0.13 | 0.02 | 90 | 1014.6 |
| 20260506085403 | 52 | 249 | 0.0 | 2.0 | 0.00 | 0.13 | 0.02 | 90 | 1014.6 |
| 20260506084903 | 52 | 248 | 1.0 | 3.0 | 0.00 | 0.13 | 0.02 | 91 | 1014.6 |
| 20260506084403 | 52 | 248 | 0.0 | 0.0 | 0.00 | 0.13 | 0.02 | 91 | 1014.7 |
| 20260506083402 | 51 | 248 | 1.0 | 3.0 | 0.00 | 0.13 | 0.02 | 91 | 1014.7 |
| 20260506082903 | 51 | 249 | 0.0 | 6.0 | 0.00 | 0.13 | 0.02 | 92 | 1014.7 |
| 20260506080903 | 50 | 241 | 2.0 | 3.0 | 0.00 | 0.13 | 0.02 | 95 | 1014.8 |
| 20260506073403 | 50 | 275 | 0.0 | 2.0 | 0.00 | 0.13 | 0.02 | 97 | 1014.6 |
| 20260506072903 | 50 | 275 | 0.0 | 0.0 | 0.00 | 0.13 | 0.02 | 98 | 1014.6 |
| 20260506071903 | 49 | 275 | 2.0 | 3.0 | 0.00 | 0.13 | 0.02 | 98 | 1014.6 |
| 20260506071403 | 49 | 275 | 2.0 | 3.0 | 0.00 | 0.13 | 0.02 | 98 | 1014.6 |
| 20260506070903 | 49 | 275 | 0.0 | 2.0 | 0.00 | 0.13 | 0.02 | 98 | 1014.6 |
| 20260506070403 | 49 | 275 | 0.0 | 1.0 | 0.00 | 0.13 | 0.02 | 98 | 1014.6 |
| 20260506062403 | 48 | 178 | 5.0 | 7.0 | 0.00 | 0.13 | 0.02 | 98 | 1014.3 |
| 20260506061903 | 48 | 188 | 2.0 | 5.0 | 0.00 | 0.13 | 0.02 | 98 | 1014.3 |
| 20260506061403 | 48 | 188 | 1.0 | 7.0 | 0.00 | 0.13 | 0.02 | 98 | 1014.4 |
| 20260506060403 | 48 | 183 | 2.0 | 5.0 | 0.00 | 0.13 | 0.02 | 98 | 1014.4 |
| 20260506051403 | 48 | 182 | 1.0 | 2.0 | 0.00 | 0.13 | 0.02 | 99 | 1014.1 |
| 20260506050903 | 48 | 181 | 2.0 | 5.0 | 0.00 | 0.13 | 0.02 | 99 | 1014.0 |
| 20260506050403 | 48 | 184 | 3.0 | 5.0 | 0.00 | 0.13 | 0.02 | 99 | 1014.0 |
| 20260506044903 | 48 | 177 | 5.0 | 7.0 | 0.00 | 0.13 | 0.02 | 99 | 1014.0 |
| 20260506044403 | 48 | 176 | 5.0 | 7.0 | 0.00 | 0.13 | 0.02 | 99 | 1014.0 |
| 20260506043903 | 48 | 182 | 5.0 | 7.0 | 0.00 | 0.13 | 0.02 | 99 | 1014.1 |
| 20260506043403 | 48 | 173 | 3.0 | 6.0 | 0.00 | 0.13 | 0.02 | 99 | 1014.1 |
| 20260506042903 | 48 | 176 | 5.0 | 6.0 | 0.00 | 0.13 | 0.02 | 99 | 1014.1 |
| 20260506042403 | 48 | 181 | 6.0 | 8.0 | 0.00 | 0.13 | 0.02 | 99 | 1014.1 |
| 20260506041403 | 48 | 181 | 5.0 | 7.0 | 0.00 | 0.13 | 0.02 | 99 | 1014.2 |
| 20260506040903 | 48 | 190 | 4.0 | 6.0 | 0.00 | 0.13 | 0.02 | 99 | 1014.2 |
| 20260506040403 | 48 | 188 | 2.0 | 3.0 | 0.00 | 0.13 | 0.02 | 99 | 1014.2 |
| 20260506035403 | 48 | 190 | 2.0 | 3.0 | 0.00 | 0.13 | 0.02 | 99 | 1014.3 |
| 20260506034903 | 48 | 190 | 2.0 | 5.0 | 0.00 | 0.13 | 0.02 | 99 | 1014.3 |
| 20260506034403 | 48 | 190 | 3.0 | 5.0 | 0.00 | 0.13 | 0.02 | 99 | 1014.3 |
| 20260506033903 | 48 | 190 | 2.0 | 7.0 | 0.00 | 0.13 | 0.02 | 99 | 1014.3 |
| 20260506033403 | 48 | 188 | 3.0 | 6.0 | 0.00 | 0.13 | 0.02 | 99 | 1014.3 |
| 20260506030903 | 48 | 174 | 3.0 | 5.0 | 0.00 | 0.13 | 0.02 | 99 | 1014.4 |
| 20260506030403 | 48 | 174 | 3.0 | 5.0 | 0.00 | 0.13 | 0.02 | 98 | 1014.4 |
| 20260506025903 | 48 | 174 | 1.0 | 5.0 | 0.00 | 0.13 | 0.02 | 98 | 1014.4 |
| 20260506025403 | 48 | 174 | 0.0 | 3.0 | 0.00 | 0.13 | 0.02 | 98 | 1014.4 |
| 20260506024903 | 48 | 174 | 2.0 | 5.0 | 0.00 | 0.13 | 0.02 | 98 | 1014.4 |
| 20260506023903 | 48 | 179 | 4.0 | 6.0 | 0.00 | 0.13 | 0.02 | 98 | 1014.4 |
| 20260506023403 | 48 | 177 | 4.0 | 7.0 | 0.00 | 0.13 | 0.02 | 98 | 1014.4 |
| 20260506022903 | 48 | 167 | 5.0 | 7.0 | 0.00 | 0.13 | 0.02 | 98 | 1014.4 |
| 20260506022403 | 48 | 200 | 4.0 | 9.0 | 0.00 | 0.13 | 0.02 | 98 | 1014.4 |
| 20260506021903 | 49 | 187 | 5.0 | 7.0 | 0.00 | 0.13 | 0.02 | 98 | 1014.4 |
| 20260506020903 | 49 | 197 | 2.0 | 5.0 | 0.00 | 0.13 | 0.02 | 98 | 1014.4 |
| 20260506020403 | 49 | 197 | 4.0 | 6.0 | 0.00 | 0.13 | 0.02 | 98 | 1014.4 |
| 20260506015903 | 49 | 214 | 3.0 | 5.0 | 0.00 | 0.13 | 0.02 | 98 | 1014.4 |
| 20260506015403 | 49 | 215 | 3.0 | 5.0 | 0.00 | 0.13 | 0.02 | 98 | 1014.4 |
| 20260506014403 | 49 | 217 | 2.0 | 5.0 | 0.00 | 0.13 | 0.02 | 98 | 1014.5 |
| 20260506013903 | 49 | 219 | 3.0 | 5.0 | 0.00 | 0.13 | 0.02 | 98 | 1014.7 |
| 20260506013403 | 49 | 238 | 2.0 | 3.0 | 0.00 | 0.13 | 0.02 | 98 | 1014.7 |
| 20260506012903 | 49 | 230 | 1.0 | 3.0 | 0.00 | 0.13 | 0.02 | 98 | 1014.6 |
| 20260506011903 | 49 | 230 | 3.0 | 6.0 | 0.00 | 0.13 | 0.02 | 98 | 1014.8 |
| 20260506011403 | 49 | 231 | 1.0 | 3.0 | 0.00 | 0.13 | 0.02 | 98 | 1014.8 |
| 20260506010903 | 49 | 231 | 1.0 | 3.0 | 0.00 | 0.13 | 0.02 | 98 | 1014.8 |
| 20260506010403 | 49 | 231 | 3.0 | 3.0 | 0.01 | 0.13 | 0.02 | 98 | 1014.9 |
| 20260506005903 | 49 | 246 | 3.0 | 3.0 | 0.01 | 0.13 | 0.02 | 98 | 1015.0 |
| 20260506004903 | 50 | 246 | 0.0 | 3.0 | 0.01 | 0.13 | 0.02 | 98 | 1015.0 |
| 20260506004403 | 50 | 247 | 0.0 | 2.0 | 0.01 | 0.13 | 0.02 | 98 | 1015.1 |
| 20260506003903 | 50 | 247 | 0.0 | 1.0 | 0.01 | 0.13 | 0.02 | 98 | 1015.2 |
| 20260506003403 | 50 | 247 | 0.0 | 1.0 | 0.01 | 0.13 | 0.02 | 98 | 1015.2 |
| 20260506002903 | 50 | 246 | 0.0 | 2.0 | 0.01 | 0.13 | 0.02 | 98 | 1015.2 |
| 20260506002403 | 50 | 246 | 1.0 | 3.0 | 0.01 | 0.13 | 0.02 | 98 | 1015.3 |
| 20260506001403 | 50 | 211 | 2.0 | 3.0 | 0.01 | 0.13 | 0.02 | 98 | 1015.3 |
| 20260506000903 | 50 | 201 | 0.0 | 0.0 | 0.01 | 0.13 | 0.02 | 98 | 1015.3 |
| 20260506000403 | 50 | 201 | 1.0 | 3.0 | 0.00 | 0.12 | 0.01 | 98 | 1015.3 |
| 20260505235903 | 50 | 198 | 0.0 | 0.0 | 0.01 | 0.12 | 0.01 | 98 | 1015.3 |
| 20260505235403 | 50 | 198 | 0.0 | 0.0 | 0.01 | 0.12 | 0.01 | 98 | 1015.3 |
| 20260505234903 | 50 | 198 | 1.0 | 3.0 | 0.01 | 0.12 | 0.01 | 98 | 1015.4 |
| 20260505234403 | 50 | 198 | 2.0 | 5.0 | 0.01 | 0.12 | 0.01 | 98 | 1015.4 |
| 20260505233903 | 50 | 199 | 3.0 | 7.0 | 0.01 | 0.12 | 0.01 | 98 | 1015.4 |
| 20260505232903 | 50 | 183 | 3.0 | 6.0 | 0.01 | 0.12 | 0.01 | 98 | 1015.4 |
| 20260505232403 | 50 | 196 | 1.0 | 3.0 | 0.01 | 0.12 | 0.01 | 98 | 1015.4 |
| 20260505231903 | 50 | 198 | 3.0 | 6.0 | 0.01 | 0.12 | 0.01 | 98 | 1015.4 |
| 20260505231403 | 50 | 203 | 5.0 | 7.0 | 0.01 | 0.12 | 0.01 | 98 | 1015.4 |
| 20260505230403 | 50 | 187 | 3.0 | 5.0 | 0.01 | 0.12 | 0.01 | 98 | 1015.4 |
| 20260505225903 | 50 | 187 | 5.0 | 6.0 | 0.00 | 0.11 | 0.00 | 98 | 1015.5 |
| 20260505225403 | 50 | 188 | 4.0 | 6.0 | 0.00 | 0.11 | 0.00 | 98 | 1015.6 |
| 20260505224903 | 50 | 188 | 1.0 | 5.0 | 0.00 | 0.11 | 0.00 | 98 | 1015.6 |
| 20260505223403 | 50 | 188 | 5.0 | 6.0 | 0.00 | 0.11 | 0.00 | 98 | 1015.6 |
| 20260505222403 | 50 | 163 | 5.0 | 7.0 | 0.00 | 0.11 | 0.00 | 97 | 1015.5 |
| 20260505220903 | 50 | 171 | 5.0 | 7.0 | 0.00 | 0.11 | 0.00 | 97 | 1015.6 |
| 20260505220403 | 50 | 167 | 5.0 | 7.0 | 0.00 | 0.11 | 0.00 | 97 | 1015.6 |
| 20260505215903 | 50 | 164 | 3.0 | 6.0 | 0.00 | 0.11 | 0.11 | 97 | 1015.6 |
| 20260505215403 | 50 | 166 | 4.0 | 6.0 | 0.00 | 0.11 | 0.11 | 97 | 1015.6 |
| 20260505214903 | 50 | 169 | 2.0 | 5.0 | 0.00 | 0.11 | 0.11 | 97 | 1015.6 |
| 20260505214403 | 50 | 163 | 3.0 | 6.0 | 0.00 | 0.11 | 0.11 | 97 | 1015.7 |
| 20260505213903 | 50 | 171 | 3.0 | 8.0 | 0.00 | 0.11 | 0.11 | 97 | 1015.7 |
| 20260505213403 | 50 | 175 | 5.0 | 8.0 | 0.00 | 0.11 | 0.11 | 97 | 1015.8 |
| 20260505212903 | 50 | 175 | 5.0 | 7.0 | 0.00 | 0.11 | 0.11 | 97 | 1015.7 |
| 20260505212403 | 50 | 180 | 5.0 | 8.0 | 0.00 | 0.11 | 0.11 | 97 | 1015.8 |
| 20260505211903 | 50 | 165 | 5.0 | 9.0 | 0.00 | 0.11 | 0.11 | 96 | 1015.8 |
| 20260505211404 | 50 | 181 | 6.0 | 8.0 | 0.00 | 0.11 | 0.11 | 96 | 1015.8 |
| 20260505210903 | 50 | 173 | 4.0 | 8.0 | 0.00 | 0.11 | 0.11 | 96 | 1015.7 |
| 20260505210403 | 50 | 173 | 6.0 | 10.0 | 0.00 | 0.11 | 0.11 | 96 | 1015.7 |
| 20260505205904 | 51 | 185 | 5.0 | 9.0 | 0.00 | 0.11 | 0.11 | 96 | 1015.6 |
| 20260505205403 | 51 | 181 | 6.0 | 8.0 | 0.00 | 0.11 | 0.11 | 96 | 1015.6 |
| 20260505204903 | 51 | 177 | 3.0 | 7.0 | 0.00 | 0.11 | 0.11 | 96 | 1015.5 |
| 20260505204403 | 51 | 174 | 4.0 | 8.0 | 0.00 | 0.11 | 0.11 | 96 | 1015.5 |
| 20260505203903 | 51 | 171 | 5.0 | 7.0 | 0.00 | 0.11 | 0.11 | 96 | 1015.6 |
| 20260505203403 | 51 | 180 | 4.0 | 7.0 | 0.00 | 0.11 | 0.11 | 96 | 1015.6 |
| 20260505202903 | 51 | 173 | 4.0 | 7.0 | 0.00 | 0.11 | 0.11 | 95 | 1015.6 |
| 20260505202403 | 51 | 176 | 5.0 | 9.0 | 0.00 | 0.11 | 0.11 | 95 | 1015.4 |
| 20260505201904 | 51 | 173 | 5.0 | 8.0 | 0.00 | 0.11 | 0.11 | 95 | 1015.4 |
| 20260505201403 | 51 | 175 | 6.0 | 8.0 | 0.00 | 0.11 | 0.11 | 95 | 1015.3 |
| 20260505200903 | 52 | 173 | 4.0 | 6.0 | 0.00 | 0.11 | 0.11 | 94 | 1015.2 |
| 20260505200403 | 52 | 181 | 3.0 | 5.0 | 0.00 | 0.11 | 0.11 | 94 | 1015.2 |
| 20260505195903 | 52 | 181 | 0.0 | 3.0 | 0.00 | 0.11 | 0.11 | 94 | 1015.1 |
| 20260505195403 | 52 | 180 | 2.0 | 5.0 | 0.00 | 0.11 | 0.11 | 93 | 1015.1 |
| 20260505194903 | 52 | 182 | 2.0 | 3.0 | 0.00 | 0.11 | 0.11 | 93 | 1015.1 |
| 20260505194403 | 52 | 181 | 0.0 | 3.0 | 0.00 | 0.12 | 0.11 | 93 | 1015.0 |
| 20260505193403 | 52 | 178 | 3.0 | 5.0 | 0.00 | 0.16 | 0.11 | 92 | 1014.9 |
| 20260505192903 | 52 | 179 | 3.0 | 5.0 | 0.00 | 0.17 | 0.11 | 92 | 1014.8 |
| 20260505192404 | 53 | 177 | 3.0 | 5.0 | 0.00 | 0.20 | 0.11 | 91 | 1014.8 |
| 20260505191903 | 53 | 190 | 3.0 | 5.0 | 0.00 | 0.22 | 0.11 | 91 | 1014.8 |
| 20260505191403 | 53 | 184 | 3.0 | 5.0 | 0.00 | 0.23 | 0.11 | 90 | 1014.7 |
| 20260505190903 | 54 | 202 | 2.0 | 5.0 | 0.00 | 0.23 | 0.11 | 88 | 1014.7 |
| 20260505190403 | 55 | 333 | 0.0 | 2.0 | 0.00 | 0.24 | 0.11 | 88 | 1014.7 |
| 20260505185903 | 55 | 251 | 0.0 | 2.0 | 0.00 | 0.24 | 0.11 | 89 | 1014.7 |
| 20260505185403 | 54 | 71 | 4.0 | 10.0 | 0.00 | 0.24 | 0.11 | 89 | 1014.8 |
| 20260505184903 | 54 | 281 | 1.0 | 6.0 | 0.00 | 0.24 | 0.11 | 91 | 1014.7 |
| 20260505183403 | 53 | 158 | 0.0 | 0.0 | 0.00 | 0.24 | 0.11 | 92 | 1014.7 |
| 20260505182903 | 53 | 156 | 3.0 | 6.0 | 0.00 | 0.25 | 0.11 | 92 | 1014.6 |
| 20260505181903 | 53 | 164 | 5.0 | 9.0 | 0.00 | 0.26 | 0.11 | 91 | 1014.5 |
| 20260505181403 | 53 | 157 | 6.0 | 10.0 | 0.00 | 0.27 | 0.11 | 91 | 1014.5 |
| 20260505180903 | 53 | 164 | 5.0 | 15.0 | 0.00 | 0.27 | 0.11 | 90 | 1014.4 |
| 20260505175903 | 54 | 175 | 9.0 | 13.0 | 0.00 | 0.28 | 0.11 | 88 | 1014.3 |
| 20260505174403 | 54 | 160 | 4.0 | 6.0 | 0.00 | 0.30 | 0.11 | 88 | 1014.3 |
| 20260505173903 | 54 | 161 | 4.0 | 8.0 | 0.00 | 0.30 | 0.11 | 88 | 1014.3 |
| 20260505173404 | 54 | 165 | 3.0 | 7.0 | 0.00 | 0.31 | 0.11 | 88 | 1014.4 |
| 20260505172404 | 54 | 159 | 4.0 | 8.0 | 0.00 | 0.31 | 0.11 | 89 | 1014.4 |
| 20260505171903 | 54 | 168 | 4.0 | 7.0 | 0.00 | 0.32 | 0.11 | 89 | 1014.4 |
| 20260505171403 | 54 | 157 | 3.0 | 6.0 | 0.00 | 0.33 | 0.11 | 90 | 1014.4 |
| 20260505170903 | 54 | 153 | 2.0 | 9.0 | 0.00 | 0.34 | 0.11 | 90 | 1014.4 |
| 20260505170403 | 54 | 162 | 6.0 | 9.0 | 0.00 | 0.34 | 0.11 | 90 | 1014.3 |
| 20260505165903 | 54 | 135 | 5.0 | 9.0 | 0.00 | 0.35 | 0.11 | 90 | 1014.3 |
| 20260505165404 | 53 | 156 | 3.0 | 7.0 | 0.00 | 0.35 | 0.11 | 90 | 1014.4 |
| 20260505164903 | 53 | 133 | 3.0 | 9.0 | 0.00 | 0.40 | 0.11 | 90 | 1014.4 |
| 20260505164403 | 53 | 153 | 5.0 | 9.0 | 0.00 | 0.43 | 0.11 | 90 | 1014.4 |
| 20260505163903 | 53 | 183 | 7.0 | 12.0 | 0.00 | 0.44 | 0.11 | 90 | 1014.3 |
| 20260505163403 | 53 | 167 | 7.0 | 12.0 | 0.00 | 0.46 | 0.11 | 90 | 1014.4 |
| 20260505162903 | 54 | 157 | 7.0 | 12.0 | 0.00 | 0.48 | 0.11 | 90 | 1014.3 |
| 20260505162403 | 54 | 138 | 5.0 | 12.0 | 0.00 | 0.49 | 0.11 | 89 | 1014.3 |
| 20260505161903 | 54 | 191 | 5.0 | 10.0 | 0.00 | 0.49 | 0.11 | 90 | 1014.2 |
| 20260505160903 | 54 | 188 | 7.0 | 12.0 | 0.00 | 0.49 | 0.11 | 89 | 1014.2 |
| 20260505160404 | 53 | 181 | 10.0 | 12.0 | 0.00 | 0.49 | 0.11 | 89 | 1014.2 |
| 20260505152903 | 55 | 193 | 6.0 | 10.0 | 0.00 | 0.54 | 0.11 | 88 | 1014.1 |
| 20260505152404 | 55 | 206 | 1.0 | 5.0 | 0.00 | 0.54 | 0.11 | 89 | 1014.1 |
| 20260505151904 | 54 | 161 | 2.0 | 5.0 | 0.00 | 0.54 | 0.11 | 89 | 1014.0 |
| 20260505150903 | 54 | 146 | 1.0 | 3.0 | 0.00 | 0.54 | 0.11 | 90 | 1014.1 |
| 20260505150403 | 54 | 183 | 1.0 | 6.0 | 0.00 | 0.54 | 0.11 | 90 | 1014.1 |
| 20260505140403 | 55 | 5 | 2.0 | 3.0 | 0.09 | 0.54 | 0.11 | 89 | 1014.0 |
| 20260505124903 | 55 | 278 | 7.0 | 14.0 | 0.01 | 0.45 | 0.02 | 86 | 1013.9 |
| 20260505124404 | 54 | 290 | 7.0 | 13.0 | 0.01 | 0.45 | 0.02 | 87 | 1013.8 |
| 20260505123904 | 54 | 306 | 2.0 | 8.0 | 0.01 | 0.45 | 0.02 | 88 | 1013.9 |
| 20260505123404 | 53 | 300 | 3.0 | 8.0 | 0.01 | 0.45 | 0.02 | 88 | 1013.9 |
| 20260505122903 | 53 | 288 | 2.0 | 8.0 | 0.01 | 0.45 | 0.02 | 88 | 1013.9 |
| 20260505122403 | 53 | 311 | 2.0 | 7.0 | 0.01 | 0.45 | 0.02 | 88 | 1013.9 |
| 20260505121904 | 53 | 293 | 2.0 | 8.0 | 0.01 | 0.45 | 0.02 | 88 | 1013.9 |
| 20260505121404 | 52 | 293 | 5.0 | 8.0 | 0.01 | 0.45 | 0.02 | 88 | 1013.9 |
| 20260505120903 | 52 | 304 | 1.0 | 7.0 | 0.01 | 0.45 | 0.02 | 88 | 1013.9 |
| 20260505120403 | 52 | 290 | 5.0 | 12.0 | 0.01 | 0.45 | 0.02 | 86 | 1014.0 |
| 20260505115903 | 52 | 327 | 9.0 | 16.0 | 0.00 | 0.44 | 0.02 | 85 | 1014.0 |
| 20260505115403 | 52 | 316 | 14.0 | 20.0 | 0.00 | 0.44 | 0.02 | 84 | 1014.0 |
| 20260505113903 | 57 | 289 | 7.0 | 15.0 | 0.00 | 0.44 | 0.02 | 79 | 1013.6 |
| 20260505113403 | 56 | 319 | 9.0 | 16.0 | 0.00 | 0.44 | 0.02 | 79 | 1013.6 |
| 20260505112904 | 56 | 302 | 8.0 | 13.0 | 0.01 | 0.44 | 0.02 | 80 | 1013.6 |
| 20260505111904 | 55 | 300 | 4.0 | 12.0 | 0.01 | 0.44 | 0.02 | 82 | 1013.8 |
| 20260505111404 | 55 | 306 | 9.0 | 15.0 | 0.01 | 0.44 | 0.02 | 81 | 1013.8 |
| 20260505110904 | 55 | 306 | 9.0 | 15.0 | 0.01 | 0.44 | 0.02 | 84 | 1013.8 |
| 20260505110403 | 55 | 294 | 6.0 | 13.0 | 0.02 | 0.44 | 0.02 | 85 | 1013.9 |